DELTA 1 R/B, 1433

Orbit data source: Space-Track

DELTA 1 R/B, 1433 is space debris in SSO originally from a launch on Fri, 02 Jul 1965 UTC launched from the Air Force Eastern Test Range (AFETR). Debris objects in space refer to the collection of defunct objects orbiting the Earth. Examples of debris include non-operational satellites, rocket bodies, and fragments generated from explosions, collisions, or faulty payload assembly.

Loading next visibility...
Identifier
1433, 1965-051B
Orbit
SSO
Last TLE update
13 hours ago
Origin
Manufacturer
ABL
Mission
Spacecraft
Bus & Motor
ALTAIR, Unknown motor
Mass
60 kg wet, 60 kg dry
Launch date (UTC)
1965-07-02 (60 years ago)
Launch vehicle
Unknown
Launch site
Air Force Eastern Test Range (AFETR)
Object type
Payload
Rocket body
Debris
Shape & HBR
Cyl, 1.5 m
Radar Cross Section
0.687 m², Medium (>0.1 m² and < 1m²)

Expand to show TLE details & history

TLE from 13 hours ago
0 DELTA 1 R/B
1 01433U 65051B   25186.35521146  .00000755  00000-0  16059-3 0  9998
2 01433  98.5288 328.6702 0038135 268.9726  90.7104 14.61700007144142
Epoch: 2025-07-05T08:31Z
TLE epoch observation values (Epoch: 2025-07-05T08:31:30.27Z)
Latitude
-0.00007°
Longitude
-82.80036°
Altitude
691.104 km
Speed
7.511 km/s
True Right ascension
21h 54m 40s
True Declination
0° 00' 00"
Sunlit
Object was in full shadow at epoch
Visualization orbit readout
Latitude
31.96658°
Longitude
-87.57049°
Altitude
707.225 km
Speed
7.497 km/s
Apparent Right ascension
21h 39m 49s
Apparent Declination
-1° 46' 48"
Sunlit
Object is in daylight
Visualization observer readout
Local Sidereal Time
09:45:00
Azimuth
2.099° NNE
Elevation
-51.846°
Doppler factor
1
Orbital elements
Apogee altitude
711.719 km
Perigee altitude
657.85 km
Semi-major axis
7,062.921 km
Eccentricity
0.00381
Inclination
98.5288°
RAAN
328.6702°
Arg. of periapsis
268.9726°
True anomaly
Unknown
Mean anomaly
90.7104°
Eccentric anomaly
Unknown
Mean motion
3.65651 °/min
Orbital period
98.45 mins
BSTAR
0.00016059
Loading maneuver chart data...
Loading SW <> Apogee altitude chart data...
Loading historical data...
Loading historical data...
Loading historical data...
Loading historical data...
Loading historical data...
Loading historical data...
Loading historical data...
Other satellites on launch #51 in the year 1965 (1965-07-02 UTC)

DELTA 1 R/B Visibility forecast

Observer location: undefined°, undefined°

Span
Click to sort rows by Start time (UTC) header in descending order
Start Az.
Max El. time (UTC)
Max El. Az.
Max El.
End time (UTC)
End Az.
9 mins2025-07-05 22:13:55.587Z18.203° NNE2025-07-05 22:18:55.587Z131.03° SE42.675°2025-07-05 22:22:55.587Z185.645° SSW
8 mins2025-07-06 09:17:55.587Z154.595° SSE2025-07-06 09:20:55.587Z110.308° ESE42.401°2025-07-06 09:25:55.587Z351.706° N
4 mins2025-07-06 21:17:55.587Z75.451° E2025-07-06 21:18:55.587Z90.691° ESE16.338°2025-07-06 21:21:55.587Z131.623° SE
|